IRM347 OIIE-LTFM

Flight info

Callsign IRM347
Flight time 3h 25m
Altitude 38000
Route NAGMO P574 ULDUS P567 MATAL M11 REBLO UT165 KAR UT309 ERZ UL615 TIMOP UT97 KANQO
Aircraft A346/H-SDE2E3FGHIJ3J4J5M1RWXY/LB1D1

Departure

Time 2026-05-07 08:27
Airport Imam Khomeini International Airport (OIIE)

Arrival

Time 2026-05-07 11:52
Airport İstanbul Airport (LTFM)
Time Latitude Longitude Altitude Speed Heading
2026-05-07 07:35 35.41018 51.15599 3278 ft 0 kts 193°
2026-05-07 08:14 35.41035 51.15605 3274 ft 4 kts 199°
2026-05-07 08:15 35.41059 51.15616 3274 ft 4 kts 195°
2026-05-07 08:15 35.41074 51.15617 3274 ft 2 kts 158°
2026-05-07 08:15 35.41091 51.15606 3274 ft 4 kts 130°
2026-05-07 08:15 35.41101 51.15581 3274 ft 4 kts 108°
2026-05-07 08:16 35.41104 51.15572 3274 ft 0 kts 109°
2026-05-07 08:21 35.41104 51.15573 3274 ft 1 kts 109°
2026-05-07 08:21 35.41099 51.15590 3274 ft 4 kts 109°
2026-05-07 08:21 35.41086 51.15637 3274 ft 9 kts 108°
2026-05-07 08:21 35.41058 51.15742 3278 ft 16 kts 108°
2026-05-07 08:22 35.41012 51.15911 3276 ft 23 kts 109°
2026-05-07 08:22 35.40952 51.16106 3272 ft 25 kts 110°
2026-05-07 08:22 35.40897 51.16306 3268 ft 17 kts 109°
2026-05-07 08:22 35.40918 51.16405 3267 ft 12 kts 28°
2026-05-07 08:23 35.41007 51.16449 3266 ft 14 kts 21°
2026-05-07 08:23 35.41106 51.16493 3265 ft 16 kts 18°
2026-05-07 08:23 35.41197 51.16529 3264 ft 6 kts 18°
2026-05-07 08:23 35.41204 51.16532 3264 ft 0 kts 18°
2026-05-07 08:24 35.41205 51.16532 3267 ft 0 kts 18°
2026-05-07 08:24 35.41212 51.16535 3263 ft 2 kts 18°
2026-05-07 08:24 35.41230 51.16542 3264 ft 3 kts 18°
2026-05-07 08:25 35.41263 51.16555 3267 ft 8 kts 17°
2026-05-07 08:25 35.41323 51.16546 3269 ft 9 kts 302°
2026-05-07 08:25 35.41342 51.16479 3269 ft 0 kts 295°
2026-05-07 08:25 35.41343 51.16476 3271 ft 1 kts 295°
2026-05-07 08:26 35.41456 51.16101 3278 ft 81 kts 288°
2026-05-07 08:26 35.41716 51.15161 3293 ft 149 kts 289°
2026-05-07 08:26 35.41968 51.14260 3300 ft 185 kts 289°
2026-05-07 08:27 35.42544 51.12146 4208 ft 194 kts 290°
2026-05-07 08:27 35.42984 51.10627 5071 ft 187 kts 297°
2026-05-07 08:27 35.43925 51.09587 5661 ft 190 kts 338°
2026-05-07 08:27 35.45239 51.09492 6219 ft 196 kts 11°
2026-05-07 08:28 35.46562 51.09989 6686 ft 203 kts 17°
2026-05-07 08:28 35.47482 51.10387 6897 ft 214 kts 18°
2026-05-07 08:28 35.48941 51.11039 7260 ft 231 kts 18°
2026-05-07 08:28 35.51050 51.11976 7726 ft 253 kts 18°
2026-05-07 08:29 35.52068 51.12426 7930 ft 265 kts 17°
2026-05-07 08:29 35.53570 51.13081 8201 ft 283 kts 17°
2026-05-07 08:29 35.55398 51.13871 8632 ft 298 kts 18°
2026-05-07 08:29 35.57381 51.14732 9306 ft 305 kts 17°
2026-05-07 08:30 35.59425 51.15618 10076 ft 310 kts 17°
2026-05-07 08:30 35.61501 51.16515 10692 ft 320 kts 17°
2026-05-07 08:30 35.63654 51.17441 11075 ft 337 kts 17°
2026-05-07 08:30 35.65901 51.18407 11449 ft 354 kts 17°
2026-05-07 08:31 35.67542 51.19114 11674 ft 362 kts 17°
2026-05-07 08:31 35.69247 51.19851 11927 ft 379 kts 17°
2026-05-07 08:31 35.71602 51.20871 12226 ft 395 kts 17°
2026-05-07 08:31 35.74260 51.22022 12642 ft 408 kts 17°
2026-05-07 08:32 35.76936 51.23184 13344 ft 413 kts 17°
2026-05-07 08:32 35.79669 51.24372 14044 ft 418 kts 17°
2026-05-07 08:32 35.82450 51.25580 14681 ft 423 kts 16°
2026-05-07 08:32 35.85191 51.26771 15372 ft 426 kts 16°
2026-05-07 08:33 35.88009 51.27994 16036 ft 431 kts 16°
2026-05-07 08:33 35.90853 51.29232 16572 ft 436 kts 16°
2026-05-07 08:33 35.93761 51.30499 17199 ft 440 kts 16°
2026-05-07 08:33 35.96728 51.31786 17914 ft 443 kts 16°
2026-05-07 08:34 35.99656 51.33063 18553 ft 448 kts 15°
2026-05-07 08:34 36.02631 51.34223 19068 ft 451 kts 12°
2026-05-07 08:34 36.05673 51.35142 19605 ft 453 kts
2026-05-07 08:34 36.08789 51.35818 20136 ft 456 kts
2026-05-07 08:35 36.11950 51.36391 20793 ft 460 kts
2026-05-07 08:35 36.15089 51.36936 21283 ft 466 kts
2026-05-07 08:35 36.18309 51.37498 21805 ft 469 kts
2026-05-07 08:35 36.21559 51.38078 22400 ft 473 kts
2026-05-07 08:36 36.24845 51.38670 22911 ft 478 kts
2026-05-07 08:36 36.28148 51.39265 23362 ft 481 kts
2026-05-07 08:36 36.31479 51.39867 23866 ft 484 kts
2026-05-07 08:36 36.34819 51.40481 24344 ft 487 kts
2026-05-07 08:37 36.38136 51.41104 24809 ft 490 kts
2026-05-07 08:37 36.41575 51.41753 25173 ft 495 kts
2026-05-07 08:37 36.44952 51.42390 25591 ft 499 kts
2026-05-07 08:37 36.48397 51.43040 25998 ft 502 kts
2026-05-07 08:38 36.51862 51.43695 26461 ft 504 kts
2026-05-07 08:38 36.55337 51.44350 26923 ft 506 kts
2026-05-07 08:38 36.58822 51.45012 27356 ft 509 kts
2026-05-07 08:38 36.62331 51.45602 27762 ft 509 kts 359°
2026-05-07 08:39 36.65862 51.45724 28199 ft 505 kts 352°
2026-05-07 08:39 36.69350 51.45306 28668 ft 500 kts 344°
2026-05-07 08:39 36.72729 51.44398 29306 ft 494 kts 339°
2026-05-07 08:39 36.76047 51.43315 29983 ft 490 kts 338°
2026-05-07 08:40 36.79330 51.42203 30570 ft 488 kts 338°
2026-05-07 08:40 36.82606 51.41092 31107 ft 486 kts 337°
2026-05-07 08:40 36.85829 51.40007 31619 ft 485 kts 337°
2026-05-07 08:40 36.89082 51.38918 32151 ft 484 kts 337°
2026-05-07 08:41 36.92336 51.37834 32665 ft 483 kts 336°
2026-05-07 08:41 36.95582 51.36755 33144 ft 482 kts 336°
2026-05-07 08:41 36.98814 51.35680 33623 ft 481 kts 336°
2026-05-07 08:41 37.02037 51.34610 34143 ft 479 kts 336°
2026-05-07 08:42 37.05256 51.33539 34577 ft 478 kts 336°
2026-05-07 08:42 37.08473 51.32466 34975 ft 477 kts 336°
2026-05-07 08:42 37.11673 51.31400 35345 ft 477 kts 336°
2026-05-07 08:42 37.14882 51.30330 35690 ft 476 kts 336°
2026-05-07 08:43 37.18083 51.29261 36052 ft 476 kts 336°
2026-05-07 08:43 37.21282 51.28194 36387 ft 475 kts 336°
2026-05-07 08:43 37.24485 51.27123 36687 ft 476 kts 336°
2026-05-07 08:43 37.27692 51.26049 36912 ft 478 kts 336°
2026-05-07 08:44 37.30902 51.24974 37134 ft 479 kts 336°
2026-05-07 08:44 37.34129 51.23893 37359 ft 480 kts 336°
2026-05-07 08:44 37.37361 51.22810 37585 ft 481 kts 336°
2026-05-07 08:44 37.40603 51.21722 37823 ft 482 kts 336°
2026-05-07 08:45 37.43851 51.20631 38017 ft 484 kts 336°
2026-05-07 08:45 37.47071 51.19550 38118 ft 486 kts 336°
2026-05-07 08:45 37.53617 51.17351 38121 ft 486 kts 336°
2026-05-07 08:46 37.60163 51.15146 38134 ft 487 kts 336°
2026-05-07 08:46 37.66711 51.12938 38127 ft 488 kts 336°
2026-05-07 08:47 37.73272 51.10720 38137 ft 488 kts 336°
2026-05-07 08:47 37.79847 51.08494 38124 ft 489 kts 336°
2026-05-07 08:48 37.86390 51.06279 38126 ft 489 kts 336°
2026-05-07 08:48 37.92886 51.03788 38133 ft 482 kts 329°
2026-05-07 08:49 37.98792 51.00006 38125 ft 469 kts 318°
2026-05-07 08:49 38.03854 50.95084 38125 ft 456 kts 308°
2026-05-07 08:50 38.08102 50.89235 38129 ft 448 kts 301°
2026-05-07 08:50 38.12063 50.83118 38129 ft 447 kts 301°
2026-05-07 08:51 38.16010 50.77000 38142 ft 447 kts 301°
2026-05-07 08:51 38.19964 50.70874 38131 ft 447 kts 301°
2026-05-07 08:52 38.23912 50.64751 38128 ft 447 kts 301°
2026-05-07 08:52 38.27857 50.58626 38140 ft 447 kts 301°
2026-05-07 08:53 38.31778 50.52527 38127 ft 447 kts 301°
2026-05-07 08:53 38.35717 50.46388 38125 ft 447 kts 301°
2026-05-07 08:54 38.39648 50.40252 38138 ft 446 kts 301°
2026-05-07 08:54 38.43572 50.34115 38127 ft 445 kts 301°
2026-05-07 08:55 38.47487 50.27978 38128 ft 445 kts 301°
2026-05-07 08:55 38.51403 50.21829 38145 ft 445 kts 301°
2026-05-07 08:56 38.55309 50.15684 38130 ft 445 kts 300°
2026-05-07 08:56 38.59189 50.09568 38128 ft 445 kts 300°
2026-05-07 08:57 38.63093 50.03403 38134 ft 446 kts 300°
2026-05-07 08:57 38.66992 49.97233 38129 ft 446 kts 300°
2026-05-07 08:58 38.70896 49.91044 38107 ft 446 kts 300°
2026-05-07 08:58 38.74793 49.84855 38141 ft 447 kts 300°
2026-05-07 08:59 38.78677 49.78673 38128 ft 448 kts 300°
2026-05-07 08:59 38.82585 49.72442 38122 ft 448 kts 300°
2026-05-07 09:00 38.86492 49.66201 38136 ft 449 kts 300°
2026-05-07 09:00 38.90412 49.59925 38131 ft 450 kts 300°
2026-05-07 09:01 38.94308 49.53675 38124 ft 450 kts 300°
2026-05-07 09:01 38.98217 49.47395 38131 ft 451 kts 300°
2026-05-07 09:02 39.02141 49.41076 38122 ft 452 kts 300°
2026-05-07 09:02 39.06068 49.34741 38118 ft 452 kts 300°
2026-05-07 09:03 39.09992 49.28397 38132 ft 453 kts 300°
2026-05-07 09:03 39.13931 49.22014 38117 ft 454 kts 300°
2026-05-07 09:04 39.17844 49.15665 38108 ft 455 kts 300°
2026-05-07 09:04 39.21789 49.09252 38110 ft 455 kts 300°
2026-05-07 09:05 39.25715 49.02854 38102 ft 454 kts 300°
2026-05-07 09:05 39.29631 48.96462 38099 ft 454 kts 300°
2026-05-07 09:06 39.33552 48.90046 38122 ft 455 kts 300°
2026-05-07 09:06 39.37478 48.83607 38100 ft 455 kts 300°
2026-05-07 09:07 39.41397 48.77171 38095 ft 456 kts 300°
2026-05-07 09:07 39.45296 48.70755 38122 ft 456 kts 300°
2026-05-07 09:08 39.49215 48.64288 38097 ft 456 kts 300°
2026-05-07 09:08 39.53136 48.57811 38092 ft 456 kts 300°
2026-05-07 09:09 39.57057 48.51319 38120 ft 456 kts 300°
2026-05-07 09:09 39.60969 48.44825 38095 ft 457 kts 300°
2026-05-07 09:10 39.64882 48.38322 38098 ft 457 kts 300°
2026-05-07 09:10 39.68794 48.31806 38117 ft 457 kts 300°
2026-05-07 09:11 39.72669 48.25330 38099 ft 457 kts 300°
2026-05-07 09:11 39.76282 48.18523 38097 ft 451 kts 294°
2026-05-07 09:12 39.79287 48.11462 38094 ft 447 kts 290°
2026-05-07 09:12 39.82105 48.04236 38104 ft 447 kts 290°
2026-05-07 09:13 39.84911 47.97013 38097 ft 447 kts 290°
2026-05-07 09:13 39.87720 47.89769 38099 ft 447 kts 290°
2026-05-07 09:14 39.90052 47.83743 38121 ft 447 kts 290°
2026-05-07 09:14 39.92848 47.76502 38112 ft 447 kts 290°
2026-05-07 09:15 39.95641 47.69255 38109 ft 447 kts 290°
2026-05-07 09:15 39.98426 47.62008 38107 ft 447 kts 290°
2026-05-07 09:16 40.01205 47.54758 38112 ft 447 kts 290°
2026-05-07 09:16 40.03985 47.47491 38108 ft 447 kts 290°
2026-05-07 09:17 40.06763 47.40210 38109 ft 447 kts 290°
2026-05-07 09:17 40.09518 47.32972 38139 ft 447 kts 290°
2026-05-07 09:18 40.12291 47.25666 38112 ft 449 kts 290°
2026-05-07 09:18 40.15065 47.18342 38109 ft 449 kts 290°
2026-05-07 09:19 40.17838 47.11003 38109 ft 449 kts 289°
2026-05-07 09:19 40.19891 47.05557 38131 ft 449 kts 290°
2026-05-07 09:21 40.22558 46.98463 38112 ft 450 kts 290°
2026-05-07 09:21 40.25321 46.91103 38111 ft 450 kts 290°
2026-05-07 09:22 40.28081 46.83731 38106 ft 450 kts 290°
2026-05-07 09:22 40.30820 46.76396 38105 ft 450 kts 289°
2026-05-07 09:23 40.33573 46.69006 38122 ft 450 kts 289°
2026-05-07 09:23 40.36318 46.61618 38099 ft 450 kts 289°
2026-05-07 09:24 40.39059 46.54222 38130 ft 450 kts 289°
2026-05-07 09:24 40.41800 46.46800 38111 ft 451 kts 290°
2026-05-07 09:25 40.44537 46.39385 38103 ft 450 kts 290°
2026-05-07 09:25 40.47268 46.31967 38102 ft 450 kts 289°
2026-05-07 09:26 40.49974 46.24585 38107 ft 451 kts 290°
2026-05-07 09:26 40.52700 46.17135 38102 ft 451 kts 289°
2026-05-07 09:27 40.55412 46.09692 38097 ft 451 kts 289°
2026-05-07 09:28 40.59478 45.98499 38109 ft 452 kts 290°
2026-05-07 09:28 40.62196 45.90997 38096 ft 454 kts 290°
2026-05-07 09:29 40.64919 45.83472 38104 ft 454 kts 289°
2026-05-07 09:29 40.67631 45.75956 38097 ft 454 kts 289°
2026-05-07 09:30 40.70340 45.68411 38105 ft 456 kts 290°
2026-05-07 09:30 40.72999 45.60864 38101 ft 455 kts 287°
2026-05-07 09:31 40.75143 45.53039 38107 ft 451 kts 281°
2026-05-07 09:31 40.76616 45.45021 38140 ft 447 kts 275°
2026-05-07 09:32 40.77417 45.36886 38113 ft 445 kts 270°
2026-05-07 09:32 40.77811 45.28717 38116 ft 445 kts 269°
2026-05-07 09:33 40.78182 45.20542 38112 ft 445 kts 269°
2026-05-07 09:33 40.78542 45.12429 38108 ft 445 kts 269°
2026-05-07 09:34 40.78900 45.04269 38112 ft 445 kts 269°
2026-05-07 09:34 40.79249 44.96100 38113 ft 446 kts 269°
2026-05-07 09:35 40.79599 44.87903 38111 ft 447 kts 269°
2026-05-07 09:35 40.79941 44.79690 38114 ft 447 kts 269°
2026-05-07 09:36 40.80278 44.71476 38112 ft 447 kts 269°
2026-05-07 09:36 40.80613 44.63236 38105 ft 449 kts 269°
2026-05-07 09:37 40.80934 44.55042 38129 ft 449 kts 269°
2026-05-07 09:37 40.81255 44.46791 38121 ft 449 kts 269°
2026-05-07 09:38 40.81568 44.38529 38112 ft 450 kts 269°
2026-05-07 09:38 40.81879 44.30250 38120 ft 451 kts 269°
2026-05-07 09:39 40.82182 44.21977 38121 ft 451 kts 269°
2026-05-07 09:39 40.82479 44.13676 38126 ft 453 kts 269°
2026-05-07 09:40 40.82772 44.05360 38124 ft 454 kts 269°
2026-05-07 09:40 40.83061 43.97013 38122 ft 454 kts 269°
2026-05-07 09:41 40.83341 43.88737 38129 ft 454 kts 269°
2026-05-07 09:41 40.83553 43.80394 38123 ft 452 kts 265°
2026-05-07 09:42 40.82853 43.72159 38137 ft 449 kts 256°
2026-05-07 09:42 40.81075 43.64237 38134 ft 449 kts 247°
2026-05-07 09:43 40.78294 43.56871 38130 ft 448 kts 237°
2026-05-07 09:43 40.74958 43.49914 38139 ft 448 kts 237°
2026-05-07 09:44 40.71603 43.42975 38139 ft 448 kts 237°
2026-05-07 09:44 40.68263 43.36098 38143 ft 448 kts 237°
2026-05-07 09:45 40.64886 43.29189 38139 ft 448 kts 237°
2026-05-07 09:45 40.61503 43.22279 38145 ft 448 kts 237°
2026-05-07 09:46 40.58128 43.15348 38151 ft 448 kts 238°
2026-05-07 09:46 40.55139 43.08144 38165 ft 449 kts 243°
2026-05-07 09:47 40.52660 43.00577 38165 ft 450 kts 247°
2026-05-07 09:47 40.50315 42.92928 38163 ft 450 kts 247°
2026-05-07 09:48 40.47983 42.85337 38162 ft 450 kts 247°
2026-05-07 09:48 40.45628 42.77691 38157 ft 450 kts 247°
2026-05-07 09:49 40.43282 42.70063 38156 ft 450 kts 247°
2026-05-07 09:49 40.40926 42.62419 38156 ft 450 kts 247°
2026-05-07 09:50 40.38583 42.54844 38156 ft 450 kts 247°
2026-05-07 09:50 40.36215 42.47221 38164 ft 450 kts 247°
2026-05-07 09:51 40.33836 42.39617 38160 ft 450 kts 246°
2026-05-07 09:51 40.31453 42.32017 38162 ft 450 kts 246°
2026-05-07 09:52 40.29069 42.24430 38157 ft 450 kts 246°
2026-05-07 09:52 40.26681 42.16853 38152 ft 449 kts 246°
2026-05-07 09:53 40.24290 42.09285 38154 ft 450 kts 246°
2026-05-07 09:53 40.21888 42.01706 38147 ft 450 kts 246°
2026-05-07 09:54 40.19501 41.94192 38143 ft 450 kts 246°
2026-05-07 09:54 40.17092 41.86631 38145 ft 450 kts 246°
2026-05-07 09:55 40.14680 41.79076 38146 ft 449 kts 246°
2026-05-07 09:55 40.12263 41.71533 38142 ft 449 kts 246°
2026-05-07 09:56 40.09826 41.63996 38144 ft 450 kts 246°
2026-05-07 09:56 40.07372 41.56454 38144 ft 450 kts 246°
2026-05-07 09:57 40.04915 41.48914 38144 ft 450 kts 246°
2026-05-07 09:57 40.02461 41.41403 38147 ft 450 kts 246°
2026-05-07 09:58 40.00026 41.33975 38143 ft 450 kts 246°
2026-05-07 09:58 39.97904 41.26292 38151 ft 451 kts 252°
2026-05-07 09:59 39.96461 41.18311 38171 ft 454 kts 259°
2026-05-07 09:59 39.95734 41.10145 38169 ft 456 kts 265°
2026-05-07 10:00 39.95634 41.01946 38167 ft 457 kts 268°
2026-05-07 10:00 39.95639 40.93641 38163 ft 457 kts 268°
2026-05-07 10:01 39.95639 40.85370 38161 ft 457 kts 268°
2026-05-07 10:01 39.95629 40.77088 38159 ft 458 kts 268°
2026-05-07 10:02 39.95612 40.68768 38162 ft 459 kts 268°
2026-05-07 10:02 39.95588 40.60454 38162 ft 459 kts 268°
2026-05-07 10:03 39.95552 40.52108 38159 ft 459 kts 268°
2026-05-07 10:03 39.95520 40.45194 38160 ft 459 kts 268°
2026-05-07 10:04 39.95476 40.36848 38173 ft 459 kts 268°
2026-05-07 10:04 39.95415 40.27141 38160 ft 460 kts 268°
2026-05-07 10:05 39.95370 40.20185 38157 ft 460 kts 268°
2026-05-07 10:05 39.95310 40.11829 38160 ft 460 kts 268°
2026-05-07 10:06 39.95242 40.03463 38156 ft 460 kts 268°
2026-05-07 10:06 39.95168 39.95122 38171 ft 460 kts 268°
2026-05-07 10:07 39.95085 39.86771 38160 ft 461 kts 268°
2026-05-07 10:07 39.94995 39.78393 38169 ft 461 kts 268°
2026-05-07 10:08 39.94900 39.70084 38164 ft 461 kts 268°
2026-05-07 10:08 39.94798 39.61711 38165 ft 461 kts 268°
2026-05-07 10:09 39.94689 39.53335 38166 ft 461 kts 268°
2026-05-07 10:09 39.94575 39.44962 38168 ft 461 kts 268°
2026-05-07 10:10 39.94460 39.36583 38166 ft 462 kts 268°
2026-05-07 10:10 39.94338 39.28205 38158 ft 462 kts 268°
2026-05-07 10:11 39.94210 39.19808 38155 ft 462 kts 268°
2026-05-07 10:11 39.94073 39.11424 38151 ft 462 kts 268°
2026-05-07 10:12 39.93939 39.03030 38158 ft 462 kts 269°
2026-05-07 10:12 39.93812 38.94700 38149 ft 462 kts 269°
2026-05-07 10:13 39.93555 38.86323 38146 ft 463 kts 265°
2026-05-07 10:13 39.93004 38.77938 38147 ft 463 kts 265°
2026-05-07 10:14 39.92440 38.69571 38142 ft 463 kts 265°
2026-05-07 10:14 39.91870 38.61201 38135 ft 463 kts 265°
2026-05-07 10:15 39.91298 38.52844 38136 ft 463 kts 265°
2026-05-07 10:15 39.90721 38.44487 38138 ft 462 kts 265°
2026-05-07 10:16 39.90137 38.36131 38141 ft 463 kts 265°
2026-05-07 10:16 39.89552 38.27825 38131 ft 463 kts 265°
2026-05-07 10:17 39.88956 38.19477 38137 ft 463 kts 265°
2026-05-07 10:17 39.88352 38.11096 38131 ft 464 kts 265°
2026-05-07 10:18 39.87744 38.02721 38127 ft 464 kts 265°
2026-05-07 10:18 39.87130 37.94351 38133 ft 464 kts 265°
2026-05-07 10:19 39.86516 37.85980 38127 ft 464 kts 265°
2026-05-07 10:19 39.85896 37.77592 38125 ft 464 kts 265°
2026-05-07 10:20 39.85270 37.69231 38138 ft 464 kts 265°
2026-05-07 10:20 39.84645 37.60914 38132 ft 464 kts 265°
2026-05-07 10:21 39.84010 37.52561 38135 ft 464 kts 265°
2026-05-07 10:21 39.83366 37.44187 38136 ft 464 kts 265°
2026-05-07 10:22 39.82710 37.35826 38138 ft 464 kts 265°
2026-05-07 10:22 39.82043 37.27458 38156 ft 463 kts 265°
2026-05-07 10:23 39.81376 37.19112 38179 ft 463 kts 265°
2026-05-07 10:23 39.80703 37.10778 38197 ft 463 kts 265°
2026-05-07 10:24 39.80027 37.02495 38223 ft 463 kts 265°
2026-05-07 10:24 39.79558 36.94156 38224 ft 462 kts 269°
2026-05-07 10:25 39.79719 36.85795 38215 ft 460 kts 275°
2026-05-07 10:25 39.80522 36.77538 38219 ft 460 kts 280°
2026-05-07 10:26 39.81635 36.69335 38201 ft 460 kts 281°
2026-05-07 10:26 39.82749 36.61169 38182 ft 460 kts 280°
2026-05-07 10:27 39.83858 36.52959 38144 ft 460 kts 280°
2026-05-07 10:27 39.84961 36.44734 38150 ft 460 kts 280°
2026-05-07 10:28 39.86058 36.36501 38150 ft 460 kts 280°
2026-05-07 10:28 39.87245 36.28293 38149 ft 460 kts 282°
2026-05-07 10:29 39.88385 36.20077 38153 ft 460 kts 280°
2026-05-07 10:29 39.89456 36.11887 38152 ft 461 kts 281°
2026-05-07 10:30 39.91074 35.99543 38148 ft 459 kts 281°
2026-05-07 10:30 39.92147 35.91326 38159 ft 459 kts 281°
2026-05-07 10:31 39.93212 35.83092 38158 ft 459 kts 281°
2026-05-07 10:31 39.94272 35.74862 38148 ft 460 kts 281°
2026-05-07 10:32 39.95327 35.66644 38152 ft 460 kts 281°
2026-05-07 10:32 39.96380 35.58397 38159 ft 460 kts 281°
2026-05-07 10:33 39.97416 35.50210 38154 ft 460 kts 281°
2026-05-07 10:33 39.98475 35.41952 38147 ft 460 kts 282°
2026-05-07 10:34 39.99965 35.33833 38147 ft 459 kts 288°
2026-05-07 10:34 40.02020 35.25949 38152 ft 458 kts 291°
2026-05-07 10:35 40.04207 35.18135 38143 ft 458 kts 291°
2026-05-07 10:35 40.06396 35.10319 38153 ft 457 kts 291°
2026-05-07 10:36 40.08576 35.02505 38153 ft 457 kts 291°
2026-05-07 10:36 40.10745 34.94696 38152 ft 457 kts 291°
2026-05-07 10:37 40.12893 34.86927 38146 ft 456 kts 291°
2026-05-07 10:37 40.15042 34.79143 38154 ft 454 kts 291°
2026-05-07 10:38 40.17185 34.71358 38156 ft 454 kts 291°
2026-05-07 10:38 40.19317 34.63582 38148 ft 453 kts 291°
2026-05-07 10:39 40.21444 34.55802 38156 ft 453 kts 291°
2026-05-07 10:39 40.23565 34.48028 38156 ft 452 kts 291°
2026-05-07 10:40 40.25666 34.40297 38157 ft 452 kts 291°
2026-05-07 10:40 40.27774 34.32516 38140 ft 453 kts 291°
2026-05-07 10:41 40.29863 34.24782 38158 ft 453 kts 291°
2026-05-07 10:41 40.31964 34.16983 38160 ft 453 kts 291°
2026-05-07 10:42 40.34059 34.09178 38159 ft 453 kts 291°
2026-05-07 10:42 40.36147 34.01376 38158 ft 453 kts 291°
2026-05-07 10:43 40.38166 33.93813 38162 ft 453 kts 291°
2026-05-07 10:43 40.40249 33.85982 38154 ft 453 kts 291°
2026-05-07 10:44 40.42352 33.78179 38142 ft 452 kts 293°
2026-05-07 10:44 40.44872 33.70655 38148 ft 451 kts 298°
2026-05-07 10:45 40.47944 33.63488 38148 ft 450 kts 303°
2026-05-07 10:45 40.51419 33.56635 38165 ft 450 kts 305°
2026-05-07 10:46 40.54920 33.49849 38153 ft 448 kts 305°
2026-05-07 10:46 40.58404 33.43077 38156 ft 448 kts 305°
2026-05-07 10:47 40.61890 33.36276 38157 ft 448 kts 305°
2026-05-07 10:47 40.65350 33.29511 38145 ft 447 kts 305°
2026-05-07 10:48 40.68820 33.22715 38152 ft 449 kts 305°
2026-05-07 10:48 40.72294 33.15873 38150 ft 450 kts 304°
2026-05-07 10:49 40.75401 33.08817 38144 ft 451 kts 299°
2026-05-07 10:49 40.78193 33.01469 38136 ft 449 kts 298°
2026-05-07 10:50 40.80956 32.94118 38140 ft 448 kts 298°
2026-05-07 10:50 40.83719 32.86755 38136 ft 448 kts 298°
2026-05-07 10:51 40.86021 32.80612 38124 ft 448 kts 298°
2026-05-07 10:51 40.88771 32.73254 38130 ft 447 kts 298°
2026-05-07 10:52 40.91522 32.65879 38130 ft 446 kts 298°
2026-05-07 10:52 40.94271 32.58493 38135 ft 446 kts 298°
2026-05-07 10:53 40.97009 32.51113 38126 ft 445 kts 298°
2026-05-07 10:53 40.99712 32.43815 38126 ft 444 kts 298°
2026-05-07 10:54 41.02426 32.36469 38128 ft 444 kts 298°
2026-05-07 10:54 41.05137 32.29112 38141 ft 444 kts 298°
2026-05-07 10:55 41.07839 32.21753 38133 ft 443 kts 298°
2026-05-07 10:55 41.10353 32.14309 38136 ft 444 kts 294°
2026-05-07 10:56 41.12319 32.06538 38131 ft 446 kts 288°
2026-05-07 10:56 41.13701 31.98499 38111 ft 448 kts 283°
2026-05-07 10:57 41.14495 31.90323 38133 ft 449 kts 279°
2026-05-07 10:57 41.15112 31.82088 38131 ft 449 kts 279°
2026-05-07 10:58 41.15720 31.73842 37858 ft 449 kts 279°
2026-05-07 10:58 41.16022 31.69709 37589 ft 449 kts 279°
2026-05-07 10:58 41.16317 31.65644 37290 ft 448 kts 279°
2026-05-07 10:59 41.16620 31.61471 36951 ft 447 kts 279°
2026-05-07 10:59 41.16915 31.57402 36579 ft 447 kts 279°
2026-05-07 10:59 41.17205 31.53364 36118 ft 447 kts 279°
2026-05-07 10:59 41.17499 31.49250 35553 ft 447 kts 279°
2026-05-07 11:00 41.17780 31.45301 35004 ft 448 kts 280°
2026-05-07 11:00 41.18070 31.41205 34422 ft 447 kts 280°
2026-05-07 11:00 41.18359 31.37101 33799 ft 447 kts 280°
2026-05-07 11:00 41.18650 31.32975 33171 ft 446 kts 280°
2026-05-07 11:01 41.18937 31.28891 32558 ft 445 kts 280°
2026-05-07 11:01 41.19219 31.24836 31957 ft 444 kts 280°
2026-05-07 11:01 41.19501 31.20769 31342 ft 444 kts 280°
2026-05-07 11:01 41.19781 31.16708 30725 ft 443 kts 280°
2026-05-07 11:02 41.20058 31.12668 30112 ft 443 kts 280°
2026-05-07 11:02 41.20338 31.08585 29421 ft 442 kts 280°
2026-05-07 11:02 41.20617 31.04505 28715 ft 442 kts 280°
2026-05-07 11:02 41.20892 31.00465 28241 ft 445 kts 280°
2026-05-07 11:03 41.21166 30.96406 27980 ft 445 kts 279°
2026-05-07 11:03 41.21438 30.92313 27729 ft 441 kts 279°
2026-05-07 11:03 41.21705 30.88279 27526 ft 437 kts 279°
2026-05-07 11:03 41.21964 30.84314 27339 ft 432 kts 279°
2026-05-07 11:04 41.22231 30.80375 27198 ft 427 kts 281°
2026-05-07 11:04 41.22722 30.76542 27056 ft 419 kts 287°
2026-05-07 11:04 41.23494 30.72948 26928 ft 408 kts 292°
2026-05-07 11:04 41.24491 30.69517 26733 ft 395 kts 295°
2026-05-07 11:05 41.25522 30.66199 26674 ft 381 kts 296°
2026-05-07 11:05 41.26513 30.63042 26592 ft 368 kts 296°
2026-05-07 11:05 41.27475 30.59963 26464 ft 356 kts 296°
2026-05-07 11:05 41.28391 30.57024 26352 ft 345 kts 296°
2026-05-07 11:06 41.29336 30.54152 26210 ft 332 kts 303°
2026-05-07 11:06 41.30852 30.51922 25895 ft 321 kts 326°
2026-05-07 11:06 41.32767 30.50679 25616 ft 315 kts 343°
2026-05-07 11:06 41.34830 30.50333 25357 ft 314 kts 360°
2026-05-07 11:07 41.36919 30.50898 25085 ft 316 kts 17°
2026-05-07 11:07 41.38586 30.52141 24855 ft 319 kts 33°
2026-05-07 11:07 41.39997 30.54155 24614 ft 324 kts 51°
2026-05-07 11:07 41.40867 30.56741 24348 ft 331 kts 71°
2026-05-07 11:08 41.41033 30.59811 24148 ft 340 kts 93°
2026-05-07 11:08 41.40395 30.62852 24169 ft 350 kts 107°
2026-05-07 11:08 41.39449 30.65849 24146 ft 352 kts 109°
2026-05-07 11:08 41.38464 30.68840 24145 ft 352 kts 109°
2026-05-07 11:09 41.37484 30.71869 24144 ft 352 kts 109°
2026-05-07 11:09 41.36548 30.74825 24147 ft 352 kts 108°
2026-05-07 11:09 41.35613 30.77820 24143 ft 352 kts 108°
2026-05-07 11:09 41.34652 30.80797 24123 ft 355 kts 115°
2026-05-07 11:10 41.33109 30.83376 24114 ft 362 kts 141°
2026-05-07 11:10 41.30918 30.84960 24129 ft 362 kts 166°
2026-05-07 11:10 41.28446 30.85288 24134 ft 356 kts 192°
2026-05-07 11:10 41.26137 30.84348 24137 ft 345 kts 215°
2026-05-07 11:11 41.24306 30.82442 24136 ft 332 kts 237°
2026-05-07 11:11 41.23142 30.79902 24119 ft 318 kts 257°
2026-05-07 11:11 41.22711 30.77112 24129 ft 306 kts 275°
2026-05-07 11:11 41.22974 30.74373 24128 ft 296 kts 293°
2026-05-07 11:12 41.23724 30.71841 24139 ft 294 kts 297°
2026-05-07 11:12 41.24532 30.69342 24135 ft 294 kts 297°
2026-05-07 11:12 41.25329 30.66851 24135 ft 294 kts 297°
2026-05-07 11:12 41.26088 30.64440 24136 ft 294 kts 297°
2026-05-07 11:13 41.26844 30.62012 24136 ft 294 kts 296°
2026-05-07 11:13 41.27599 30.59569 24125 ft 294 kts 296°
2026-05-07 11:13 41.28375 30.57053 24141 ft 294 kts 296°
2026-05-07 11:13 41.29189 30.54527 24120 ft 292 kts 303°
2026-05-07 11:14 41.30444 30.52454 24123 ft 287 kts 322°
2026-05-07 11:14 41.31994 30.51131 24148 ft 287 kts 336°
2026-05-07 11:14 41.33829 30.50437 24140 ft 288 kts 352°
2026-05-07 11:14 41.35758 30.50500 24137 ft 293 kts
2026-05-07 11:15 41.37519 30.51276 24134 ft 299 kts 22°
2026-05-07 11:15 41.39281 30.52979 24133 ft 310 kts 41°
2026-05-07 11:15 41.40561 30.55490 24128 ft 323 kts 62°
2026-05-07 11:15 41.41079 30.58368 24133 ft 336 kts 82°
2026-05-07 11:16 41.40790 30.61494 24136 ft 349 kts 104°
2026-05-07 11:16 41.39899 30.64511 24148 ft 353 kts 109°
2026-05-07 11:16 41.38914 30.67491 24144 ft 353 kts 110°
2026-05-07 11:16 41.37947 30.70427 24141 ft 352 kts 109°
2026-05-07 11:17 41.36989 30.73417 24149 ft 352 kts 108°
2026-05-07 11:17 41.36055 30.76393 24144 ft 353 kts 108°
2026-05-07 11:17 41.35138 30.79342 24139 ft 353 kts 108°
2026-05-07 11:17 41.34011 30.82132 24108 ft 358 kts 127°
2026-05-07 11:18 41.32139 30.84272 24123 ft 363 kts 153°
2026-05-07 11:18 41.30603 30.85086 24128 ft 362 kts 170°
2026-05-07 11:18 41.27407 30.85019 24134 ft 352 kts 202°
2026-05-07 11:18 41.25257 30.83603 24135 ft 339 kts 225°
2026-05-07 11:19 41.23711 30.81383 24136 ft 326 kts 246°
2026-05-07 11:19 41.22866 30.78670 24127 ft 312 kts 265°
2026-05-07 11:19 41.22753 30.75867 24130 ft 301 kts 283°
2026-05-07 11:19 41.23295 30.73229 24138 ft 294 kts 296°
2026-05-07 11:20 41.24075 30.70779 24137 ft 294 kts 297°
2026-05-07 11:20 41.24874 30.68294 24135 ft 294 kts 297°
2026-05-07 11:20 41.25658 30.65821 24138 ft 294 kts 297°
2026-05-07 11:20 41.26428 30.63360 24136 ft 294 kts 297°
2026-05-07 11:21 41.27201 30.60867 24132 ft 294 kts 296°
2026-05-07 11:21 41.27974 30.58364 24125 ft 294 kts 296°
2026-05-07 11:21 41.28749 30.55846 24140 ft 294 kts 296°
2026-05-07 11:21 41.29683 30.53526 24111 ft 289 kts 312°
2026-05-07 11:22 41.31168 30.51739 24127 ft 286 kts 329°
2026-05-07 11:22 41.32935 30.50687 24140 ft 287 kts 345°
2026-05-07 11:22 41.34876 30.50384 24136 ft 291 kts
2026-05-07 11:22 41.36808 30.50879 24134 ft 297 kts 16°
2026-05-07 11:23 41.38519 30.52105 24130 ft 304 kts 32°
2026-05-07 11:23 41.39736 30.53703 24130 ft 313 kts 47°
2026-05-07 11:23 41.40732 30.56187 24131 ft 326 kts 66°
2026-05-07 11:23 41.41067 30.59183 24131 ft 340 kts 88°
2026-05-07 11:24 41.40583 30.62253 24142 ft 351 kts 106°
2026-05-07 11:24 41.39722 30.65048 24141 ft 353 kts 109°
2026-05-07 11:24 41.38729 30.68045 24141 ft 353 kts 110°
2026-05-07 11:24 41.37749 30.71037 24140 ft 352 kts 109°
2026-05-07 11:25 41.36801 30.74008 24147 ft 353 kts 108°
2026-05-07 11:25 41.35865 30.76996 24143 ft 353 kts 108°
2026-05-07 11:25 41.34932 30.79989 24138 ft 353 kts 110°
2026-05-07 11:25 41.33634 30.82710 24116 ft 360 kts 134°
2026-05-07 11:26 41.31583 30.84630 24126 ft 363 kts 159°
2026-05-07 11:26 41.29154 30.85324 24131 ft 359 kts 185°
2026-05-07 11:26 41.26750 30.84712 24135 ft 348 kts 209°
2026-05-07 11:26 41.24752 30.83033 24135 ft 335 kts 231°
2026-05-07 11:27 41.23377 30.80578 24138 ft 324 kts 253°
2026-05-07 11:27 41.22849 30.77771 24123 ft 311 kts 275°
2026-05-07 11:27 41.23199 30.74923 24153 ft 321 kts 294°
2026-05-07 11:27 41.24014 30.72063 24158 ft 342 kts 295°
2026-05-07 11:28 41.24875 30.69048 24153 ft 364 kts 294°
2026-05-07 11:28 41.25774 30.65861 24143 ft 384 kts 294°
2026-05-07 11:28 41.26728 30.62447 24142 ft 404 kts 294°
2026-05-07 11:28 41.27722 30.58875 24127 ft 419 kts 293°
2026-05-07 11:29 41.28679 30.55249 24016 ft 422 kts 289°
2026-05-07 11:29 41.28960 30.51280 23361 ft 431 kts 269°
2026-05-07 11:29 41.28216 30.47418 22611 ft 441 kts 251°
2026-05-07 11:29 41.26783 30.43828 22040 ft 440 kts 244°
2026-05-07 11:30 41.25291 30.40365 21448 ft 437 kts 244°
2026-05-07 11:30 41.23786 30.36843 20823 ft 434 kts 244°
2026-05-07 11:30 41.22350 30.33439 20331 ft 430 kts 245°
2026-05-07 11:30 41.20909 30.29990 19956 ft 423 kts 245°
2026-05-07 11:31 41.19496 30.26586 19598 ft 423 kts 245°
2026-05-07 11:31 41.18085 30.23177 19274 ft 422 kts 245°
2026-05-07 11:31 41.16685 30.19786 18946 ft 421 kts 245°
2026-05-07 11:31 41.15271 30.16361 18621 ft 419 kts 245°
2026-05-07 11:32 41.12484 30.09617 17920 ft 415 kts 244°
2026-05-07 11:32 41.11100 30.06272 17587 ft 413 kts 244°
2026-05-07 11:32 41.09717 30.02934 17199 ft 411 kts 244°
2026-05-07 11:33 41.08339 29.99611 16783 ft 408 kts 244°
2026-05-07 11:33 41.06972 29.96321 16365 ft 405 kts 244°
2026-05-07 11:33 41.05619 29.93068 15937 ft 402 kts 244°
2026-05-07 11:33 41.04269 29.89819 15515 ft 399 kts 244°
2026-05-07 11:34 41.02932 29.86606 15069 ft 396 kts 243°
2026-05-07 11:34 41.01606 29.83423 14640 ft 393 kts 243°
2026-05-07 11:34 41.00286 29.80259 14212 ft 389 kts 243°
2026-05-07 11:34 40.98979 29.77127 13761 ft 386 kts 243°
2026-05-07 11:35 40.97690 29.74038 13307 ft 382 kts 243°
2026-05-07 11:35 40.96412 29.70978 12870 ft 378 kts 243°
2026-05-07 11:35 40.95136 29.67932 12443 ft 374 kts 243°
2026-05-07 11:35 40.93879 29.64936 12022 ft 370 kts 243°
2026-05-07 11:36 40.93056 29.62975 11746 ft 367 kts 243°
2026-05-07 11:36 40.91819 29.60032 11332 ft 364 kts 243°
2026-05-07 11:36 40.90594 29.57125 10922 ft 360 kts 243°
2026-05-07 11:36 40.89054 29.53266 10365 ft 355 kts 250°
2026-05-07 11:37 40.88420 29.50187 9960 ft 351 kts 264°
2026-05-07 11:37 40.88326 29.48032 9915 ft 350 kts 273°
2026-05-07 11:37 40.88477 29.44960 10023 ft 332 kts 277°
2026-05-07 11:37 40.88670 29.42050 10026 ft 314 kts 277°
2026-05-07 11:38 40.88859 29.39253 10039 ft 297 kts 277°
2026-05-07 11:38 40.89028 29.36646 10052 ft 283 kts 277°
2026-05-07 11:38 40.89189 29.34094 10078 ft 281 kts 277°
2026-05-07 11:38 40.89347 29.31549 9841 ft 282 kts 277°
2026-05-07 11:39 40.89506 29.28974 9477 ft 281 kts 277°
2026-05-07 11:39 40.89659 29.26447 9170 ft 277 kts 276°
2026-05-07 11:39 40.89809 29.23926 8842 ft 275 kts 276°
2026-05-07 11:39 40.89957 29.21431 8478 ft 273 kts 276°
2026-05-07 11:40 40.90097 29.19062 8179 ft 271 kts 276°
2026-05-07 11:40 40.90240 29.16625 7878 ft 268 kts 276°
2026-05-07 11:40 40.90381 29.14226 7588 ft 265 kts 276°
2026-05-07 11:40 40.90522 29.11811 7305 ft 262 kts 276°
2026-05-07 11:41 40.90660 29.09435 7014 ft 260 kts 276°
2026-05-07 11:41 40.90799 29.07062 6729 ft 258 kts 276°
2026-05-07 11:41 40.90933 29.04740 6438 ft 256 kts 276°
2026-05-07 11:41 40.91052 29.02403 6142 ft 254 kts 272°
2026-05-07 11:42 40.90931 29.00129 5880 ft 255 kts 262°
2026-05-07 11:42 40.90531 28.97852 5889 ft 261 kts 257°
2026-05-07 11:42 40.90047 28.95544 5907 ft 262 kts 256°
2026-05-07 11:42 40.89552 28.93234 5923 ft 263 kts 256°
2026-05-07 11:43 40.89058 28.90914 5958 ft 263 kts 256°
2026-05-07 11:43 40.88571 28.88617 5968 ft 263 kts 256°
2026-05-07 11:43 40.88078 28.86284 5984 ft 263 kts 256°
2026-05-07 11:43 40.87657 28.83943 5973 ft 262 kts 268°
2026-05-07 11:44 40.87940 28.81607 5974 ft 260 kts 294°
2026-05-07 11:44 40.88992 28.79691 5980 ft 262 kts 319°
2026-05-07 11:44 40.90535 28.78479 6001 ft 264 kts 332°
2026-05-07 11:44 40.92177 28.77447 5929 ft 265 kts 332°
2026-05-07 11:45 40.93786 28.76288 5567 ft 265 kts 328°
2026-05-07 11:45 40.95372 28.75065 5247 ft 263 kts 328°
2026-05-07 11:45 40.96972 28.74047 5010 ft 260 kts 336°
2026-05-07 11:45 40.98665 28.73427 4981 ft 247 kts 349°
2026-05-07 11:46 41.00319 28.73237 4980 ft 235 kts 355°
2026-05-07 11:46 41.01886 28.73204 4932 ft 223 kts 356°
2026-05-07 11:46 41.03407 28.73198 4736 ft 220 kts 356°
2026-05-07 11:46 41.04921 28.73187 4460 ft 219 kts 356°
2026-05-07 11:47 41.06412 28.73167 4212 ft 214 kts 356°
2026-05-07 11:47 41.07834 28.73142 3909 ft 211 kts 356°
2026-05-07 11:47 41.09286 28.73112 3614 ft 209 kts 355°
2026-05-07 11:47 41.10727 28.73082 3312 ft 205 kts 356°
2026-05-07 11:48 41.12100 28.73055 3043 ft 197 kts 356°
2026-05-07 11:48 41.13351 28.73030 2779 ft 187 kts 356°
2026-05-07 11:48 41.14602 28.73005 2559 ft 178 kts 356°
2026-05-07 11:48 41.15766 28.72981 2337 ft 168 kts 356°
2026-05-07 11:49 41.16870 28.72960 2096 ft 159 kts 356°
2026-05-07 11:49 41.17925 28.72941 1923 ft 159 kts 355°
2026-05-07 11:49 41.19020 28.72918 1722 ft 159 kts 356°
2026-05-07 11:49 41.20066 28.72896 1556 ft 158 kts 356°
2026-05-07 11:50 41.21080 28.72877 1347 ft 158 kts 356°
2026-05-07 11:50 41.22090 28.72857 1167 ft 157 kts 356°
2026-05-07 11:50 41.23144 28.72833 966 ft 156 kts 360°
2026-05-07 11:50 41.24182 28.72812 751 ft 153 kts
2026-05-07 11:51 41.25230 28.72790 548 ft 150 kts
2026-05-07 11:51 41.26254 28.72767 411 ft 150 kts
2026-05-07 11:51 41.27225 28.72765 352 ft 120 kts 360°
2026-05-07 11:51 41.27787 28.72742 351 ft 59 kts 359°
2026-05-07 11:52 41.28066 28.72833 350 ft 31 kts 28°
2026-05-07 11:52 41.28144 28.72951 345 ft 18 kts 119°
2026-05-07 11:52 41.28106 28.72964 347 ft 0 kts 191°
2026-05-07 11:52 41.28097 28.72962 345 ft 3 kts 184°
2026-05-07 11:53 41.28068 28.72960 349 ft 6 kts 182°
2026-05-07 11:53 41.28036 28.72960 352 ft 0 kts 179°
2026-05-07 11:53 41.28025 28.72960 350 ft 3 kts 179°
2026-05-07 11:53 41.27992 28.72960 352 ft 6 kts 179°
2026-05-07 11:54 41.27937 28.72961 347 ft 10 kts 178°
2026-05-07 11:54 41.27858 28.72966 347 ft 13 kts 178°
2026-05-07 11:54 41.27757 28.72971 351 ft 16 kts 178°
2026-05-07 11:54 41.27628 28.72973 351 ft 20 kts 180°
2026-05-07 11:55 41.27500 28.72975 351 ft 17 kts 179°
2026-05-07 11:55 41.27369 28.72979 345 ft 20 kts 179°
2026-05-07 11:55 41.27214 28.72981 352 ft 23 kts 179°
2026-05-07 11:55 41.27048 28.72986 350 ft 25 kts 179°
2026-05-07 11:56 41.26937 28.72988 352 ft 16 kts 179°
2026-05-07 11:56 41.26873 28.73019 350 ft 8 kts 119°
2026-05-07 11:56 41.26870 28.73101 350 ft 11 kts 94°
2026-05-07 11:56 41.26866 28.73211 348 ft 13 kts 90°
2026-05-07 11:57 41.26868 28.73348 349 ft 14 kts 88°
2026-05-07 11:57 41.26858 28.73427 351 ft 2 kts 140°
2026-05-07 11:57 41.26841 28.73439 350 ft 4 kts 161°
2026-05-07 11:57 41.26806 28.73441 344 ft 0 kts 179°
2026-05-07 11:58 41.26797 28.73441 345 ft 3 kts 179°
2026-05-07 11:58 41.26788 28.73442 351 ft 0 kts 179°